Volver al catálogo

APSTAR 6D

ActivoComunicacionesGEO
NORAD 45863·PAYLOAD·🇨🇳 China

Lanzado Jul 9, 2020 desde Xichang Satellite Launch Center

Loading…

TLE

ActualizadoSource: Space-Track

Época: Sep 14, 2026, 14:26 UTC

1 45863U 20045A   26257.60170779 -.00000325  00000-0  00000-0 0  9997
2 45863   0.0413 108.8449 0002780 338.4098 256.9495  1.00270549 22756

Sigue APSTAR 6D en tiempo real con AllMySat

Download on the App Store